Weather History for Crestview, FL

Change the Weather History Date:

Thursday, October 4, 2012

  Actual Average Record
Temperature  
Mean Temperature 73 °F -  
Max Temperature 84 °F 85 °F 93 °F (2013)
Min Temperature 62 °F 58 °F 45 °F (1980)
Cooling Degree Days 8    
Growing Degree Days 23 (Base 50)    
Moisture  
Dew Point 64 °F    
Average Humidity 83    
Maximum Humidity 96    
Minimum Humidity 51    
Precipitation  
Precipitation 0.00 in - - ()
Sea Level Pressure  
Sea Level Pressure 30.20 in    
Wind  
Wind Speed 2 mph (NNE)    
Max Wind Speed 7 mph    
Max Gust Speed -    
Visibility 6 miles    
Events Fog    
Averages and records for this station are not official NWS values.
T = Trace of Precipitation, MM = Missing Value Source: NWS Daily Summary

Daily Weather History Graph

Daily Weather History Graph

Search for Another Location

Airport:

Trip Planner

Search our weather history database for the weather conditions in past years. The results will help you decide how hot, cold, wet, or windy it might be!

Date:

Astronomy

Oct. 04, 2012 Rise Set
Actual Time 6:41 AM CDT 6:26 PM CDT
Civil Twilight 6:17 AM CDT 6:51 PM CDT
Nautical Twilight 5:49 AM CDT 7:18 PM CDT
Astronomical Twilight 5:21 AM CDT 7:46 PM CDT
Moon 9:20 PM CDT (10/4) 10:40 AM CDT (10/4)
Length of Visible Light 12h 33m
Length of Day
11h 45m
Waning Gibbous, 82% of the Moon is Illuminated
Oct 4
Waning Gibbous
Oct 8
Last Quarter
Oct 15
New
Oct 21
First Quarter
Oct 29
Full

Hourly Weather History & Observations

Time (CDT) Temp. Heat Index Dew Point Humidity Pressure Visibility Wind Dir Wind Speed Gust Speed Precip Events Conditions
12:53 AM 62.1 °F - 60.1 °F 93% 30.16 in 8.0 mi Calm Calm - N/A   Clear
1:43 AM 64.4 °F - 60.8 °F 88% 30.17 in 9.0 mi Calm Calm - N/A   Partly Cloudy
1:53 AM 64.0 °F - 60.1 °F 87% 30.17 in 9.0 mi Calm Calm - N/A   Scattered Clouds
2:53 AM 63.0 °F - 60.1 °F 90% 30.17 in 7.0 mi Calm Calm - N/A   Clear
3:33 AM 64.4 °F - 60.8 °F 88% 30.18 in 6.0 mi Calm Calm - N/A   Scattered Clouds
3:42 AM 64.4 °F - 62.6 °F 94% 30.18 in 5.0 mi Calm Calm - N/A   Mostly Cloudy
3:53 AM 64.9 °F - 62.1 °F 90% 30.18 in 4.0 mi Calm Calm - N/A   Overcast
4:40 AM 64.4 °F - 62.6 °F 94% 30.19 in 1.8 mi NNE 3.5 mph - N/A   Overcast
4:48 AM 64.4 °F - 62.6 °F 94% 30.20 in 0.5 mi NE 4.6 mph - N/A Fog Fog
4:53 AM 64.0 °F - 63.0 °F 96% 30.19 in 0.2 mi Variable 3.5 mph - N/A Fog Fog
5:35 AM 64.4 °F - 62.6 °F 94% 30.21 in 0.2 mi Calm Calm - N/A Fog Fog
5:53 AM 64.0 °F - 62.1 °F 93% 30.21 in 0.2 mi Calm Calm - N/A Fog Fog
6:41 AM 64.4 °F - 62.6 °F 94% 30.23 in 0.2 mi Calm Calm - N/A Fog Fog
6:53 AM 64.9 °F - 63.0 °F 93% 30.22 in 0.2 mi Calm Calm - N/A Fog Fog
7:53 AM 66.0 °F - 64.0 °F 93% 30.24 in 0.5 mi NE 3.5 mph - N/A Fog Fog
8:15 AM 66.2 °F - 64.4 °F 94% 30.25 in 0.8 mi Calm Calm - N/A   Overcast
8:46 AM 68.0 °F - 66.2 °F 94% 30.25 in 1.0 mi NNE 4.6 mph - N/A   Overcast
8:53 AM 68.0 °F - 66.9 °F 96% 30.24 in 0.8 mi NE 4.6 mph - N/A   Overcast
9:14 AM 68.0 °F - 66.2 °F 94% 30.25 in 1.8 mi NNE 4.6 mph - N/A   Overcast
9:20 AM 69.8 °F - 66.2 °F 88% 30.25 in 3.0 mi NNE 4.6 mph - N/A   Overcast
9:53 AM 71.1 °F - 66.0 °F 84% 30.25 in 10.0 mi North 4.6 mph - N/A   Overcast
10:27 AM 73.4 °F - 66.2 °F 78% 30.25 in 10.0 mi NNW 6.9 mph - N/A   Overcast
10:45 AM 75.2 °F - 66.2 °F 73% 30.25 in 10.0 mi NE 5.8 mph - N/A   Scattered Clouds
10:53 AM 77.0 °F - 66.0 °F 69% 30.24 in 10.0 mi NE 5.8 mph - N/A   Partly Cloudy
11:53 AM 82.0 °F 83.4 °F 64.0 °F 54% 30.23 in 10.0 mi Variable 4.6 mph - N/A   Clear
12:53 PM 82.9 °F 84.0 °F 63.0 °F 51% 30.20 in 10.0 mi ENE 5.8 mph - N/A   Clear
1:53 PM 84.0 °F 85.8 °F 64.9 °F 53% 30.19 in 10.0 mi Variable 4.6 mph - N/A   Clear
2:53 PM 84.0 °F 86.3 °F 66.0 °F 55% 30.17 in 10.0 mi NE 5.8 mph - N/A   Clear
3:53 PM 84.0 °F 86.3 °F 66.0 °F 55% 30.17 in 10.0 mi Variable 5.8 mph - N/A   Clear
4:53 PM 82.9 °F 85.0 °F 66.0 °F 56% 30.16 in 10.0 mi NNE 4.6 mph - N/A   Clear
5:53 PM 78.1 °F - 68.0 °F 71% 30.15 in 10.0 mi Calm Calm - N/A   Clear
6:53 PM 75.0 °F - 66.9 °F 76% 30.16 in 10.0 mi North 3.5 mph - N/A   Clear
7:53 PM 71.1 °F - 66.0 °F 84% 30.17 in 10.0 mi Calm Calm - N/A   Clear
8:53 PM 68.0 °F - 64.9 °F 90% 30.18 in 9.0 mi Calm Calm - N/A   Clear
9:53 PM 66.0 °F - 64.0 °F 93% 30.19 in 5.0 mi Calm Calm - N/A   Clear
10:53 PM 66.0 °F - 64.0 °F 93% 30.19 in 9.0 mi Calm Calm - N/A   Clear
11:53 PM 64.9 °F - 63.0 °F 93% 30.17 in 8.0 mi Calm Calm - N/A   Clear